SL-14 DEB, 45459

Orbit data source: Space-Track

SL-14 DEB, 45459 is space debris in LEO originally from a launch on Thu, 15 Aug 1991 UTC launched from the Plesetsk Missile And Space Complex (PKMTR). Debris objects in space refer to the collection of defunct objects orbiting the Earth. Examples of debris include non-operational satellites, rocket bodies, and fragments generated from explosions, collisions, or faulty payload assembly.

Loading next visibility...
Identifier
45459, 1991-056CT
Orbit
LEO
Country
Flag of CISCIS
Related business
Manufacturer
Unknown
Mission
Spacecraft
Bus & Motor
Unknown
Mass
Unknown
Launch date (UTC)
1991-08-15 (34 years ago)
Launch vehicle
Unknown
Launch site
Plesetsk Missile And Space Complex (PKMTR)
Object type
Payload
Rocket body
Debris
Shape & HBR
Unknown
Radar Cross Section
Small (<0.1 m²)

Expand to show TLE details & history
Last TLE update: 1 year ago

TLE from 1 year ago
0 SL-14 DEB
1 45459U 91056CT  24271.15697152  .00030206  00000-0  33352-1 0  9998
2 45459  82.5965 172.7889 0223762  22.6898 338.3953 13.61486476227497
Epoch: 2024-09-27T03:46Z
TLE epoch observation values (Epoch: 2024-09-27T03:46:02.339Z)
Latitude
-0.00003°
Longitude
109.84701°
Altitude
879.53 km
Speed
7.489 km/s
True Right ascension
11h 31m 09s
True Declination
0° 00' 00"
Sunlit
Object was in daylight at epoch
Visualization orbit readout
Latitude
Unknown
Longitude
Unknown
Altitude
Unknown
Speed
Unknown
Apparent Right ascension
Unknown
Apparent Declination
Unknown
Sunlit
N/A
Visualization observer readout
Local Sidereal Time
17:39:45
Azimuth
Unknown
Elevation
Unknown
Doppler factor
Unknown
Orbital elements
Apogee altitude
1,193.183 km
Perigee altitude
861.764 km
Semi-major axis
7,405.611 km
Eccentricity
0.02238
Inclination
82.5965°
RAAN
172.7889°
Arg. of periapsis
22.6898°
True anomaly
337.42605°
Mean anomaly
338.3953°
Eccentric anomaly
337.91323°
Mean motion
3.40566 °/min
Orbital period
105.71 mins
BSTAR
0.033352
Loading maneuver chart data...
Computing Atmospheric mass density...
Loading historical data...
Loading historical data...
Loading historical data...
Loading historical data...
Loading historical data...
Loading historical data...
Loading historical data...

Documentation

Showing up to 5 results
|